Location: Bismarck
(46.7731°N, 100.8200°W)
Time: 03:40:56
(UTC-05:00)

Landsat 7 - Visible Passes

Search period start: 29 July 2014 00:00
Search period end: 08 August 2014 00:00
Orbit: 702 x 703 km, 98.2° (Epoch: 28 July)

Date Brightness Start Highest point End Pass type
(mag) Time Alt. Az. Time Alt. Az. Time Alt. Az.
29 Jul 4.5 22:37:13 16° SE 22:40:36 41° ENE 22:45:04 10° N visible
30 Jul 5.5 00:16:06 17° SW 00:18:29 25° W 00:22:25 10° NW visible
30 Jul 3.8 23:20:33 26° S 23:23:15 81° WSW 23:28:03 10° NNW visible
31 Jul 4.8 22:25:00 14° ESE 22:28:28 32° ENE 22:32:42 10° N visible
01 Aug 5.1 00:03:54 21° SW 00:06:11 32° W 00:10:28 10° NNW visible
01 Aug 3.8 23:08:21 26° SSE 23:11:03 78° ENE 23:15:50 10° N visible
02 Aug 6.2 00:47:14 10° WSW 00:49:23 13° W 00:51:38 10° WNW visible
02 Aug 5.1 22:12:48 12° ESE 22:16:22 26° ENE 22:20:16 10° N visible
02 Aug 4.7 23:51:41 26° SSW 23:53:54 42° W 23:58:26 10° NNW visible
03 Aug 4.0 22:56:08 24° SE 22:58:52 60° ENE 23:03:34 10° N visible
04 Aug 6.0 00:35:02 14° WSW 00:37:01 17° W 00:40:09 10° NW visible
04 Aug 5.4 22:00:48 10° ESE 22:04:17 21° ENE 22:07:46 10° NNE visible
04 Aug 4.3 23:39:29 30° SSW 23:41:39 55° W 23:46:20 10° NNW visible
05 Aug 4.3 22:43:57 22° SE 22:46:43 47° ENE 22:51:16 10° N visible
06 Aug 5.7 00:22:50 18° SW 00:24:41 22° W 00:28:24 10° NW visible
06 Aug 5.7 21:49:16 10° E 21:52:13 17° ENE 21:55:10 10° NNE visible
06 Aug 3.9 23:27:17 33° S 23:29:25 71° WSW 23:34:11 10° NNW visible
07 Aug 4.6 22:31:45 19° ESE 22:34:35 36° ENE 22:38:56 10° N visible
